Regional Weather Roundup
Issued by NWS

Home | Current Version | Previous Version | Text Only | Print | Product List | Glossary Off
Versions: 1 2 3 4 5 6 7 8 9 10 11 12 13 14 15 16 17 18 19 20 21 22 23 24 25 26 27 28 29 30 31 32 33 34 35 36 37 38 39 40 41 42 43 44 45 46 47 48 49 50

000
ASUS45 KCYS 162210
RWRWY

WYOMING REGIONAL WEATHER ROUNDUP
NATIONAL WEATHER SERVICE CHEYENNE WY
400 PM MDT WED AUG 16 2017

NOTE:  "FAIR" INDICATES FEW OR NO CLOUDS BELOW 12,000 FEET
WITH NO SIGNIFICANT WEATHER AND/OR OBSTRUCTIONS TO VISIBILITY.

WYZ001-162300-
YELLOWSTONE NATIONAL PARK

CITY           SKY/WX    TMP DP  RH WIND       PRES   REMARKS
LK YELLOWSTONE   N/A     58  44  60 CALM      30.26F
W YELLOWSTONE  NOT AVBL

$$
WYZ002>013-054>058-071-098>099-162300-
NORTHERN WYOMING

CITY           SKY/WX    TMP DP  RH WIND       PRES   REMARKS
JACKSON        FAIR      75  37  25 W12       30.16F
CODY           FAIR      79  33  19 W6        30.04S
GREYBULL       FAIR      85  28  12 S6        29.95F
WORLAND        FAIR      84  24  11 VRB5      29.98F
SHERIDAN       FAIR      84  34  16 CALM      29.97F
BUFFALO        FAIR      80  34  19 S10       30.05F
GILLETTE       FAIR      81  27  14 E7        30.01F
HULETT         FAIR      77  41  27 NE3       30.04F
NEWCASTLE      FAIR      77  36  22 W5        30.03F

$$
WYZ014>020-022>026-101>103-162300-
CENTRAL WYOMING

CITY           SKY/WX    TMP DP  RH WIND       PRES   REMARKS
BIG PINEY      PTSUNNY   67  38  34 S13       30.21F
PINEDALE       FAIR      70  32  24 W8        30.21F
DUBOIS         FAIR      68  32  26 W14G22    30.19S
LANDER           N/A    N/A N/A N/A MISG      30.06F
RIVERTON       FAIR      79  32  18 SE7       30.07F
CASPER         FAIR      76  30  18 E3        30.08F
DOUGLAS        FAIR      76  37  24 VRB3      30.08F

$$
WYZ021-027>030-104>119-162300-
SOUTHERN WYOMING

CITY           SKY/WX    TMP DP  RH WIND       PRES   REMARKS
EVANSTON       CLOUDY    70  35  27 N9        30.22F
KEMMERER         N/A     73  30  20 W13G25    30.22F
FORT BRIDGER   FAIR      74  30  19 W18G24    30.24S
ROCK SPRINGS   FAIR      74  32  21 W9G24     30.19F
RAWLINS        PTSUNNY   72  36  26 VRB5G18   30.19F
SARATOGA       FAIR      68  36  30 NW8       30.21F
LARAMIE        FAIR      70  33  25 N16G29    30.20S
CHEYENNE       FAIR      72  36  26 NE12      30.15S
TORRINGTON     FAIR      78  38  23 N8        30.04F
PINE BLUFFS    FAIR      73  37  27 N16G22    30.11S

$$



USA.gov is the U.S. government's official web portal to all federal, state and local government web resources and services.